Charlotte, NC

2:14 AM EST on January 20, 2017 (GMT -0500)
Charlotte-Douglas International

Weather History for KCLT - June, 2014

Change the Weather History Date:

Saturday, June 14, 2014

  Actual Average Record
Temperature  
Mean Temperature 75 °F 75 °F  
Max Temperature 86 °F 86 °F 99 °F (1958)
Min Temperature 63 °F 64 °F 53 °F (1903)
Degree Days  
Heating Degree Days 0 0  
Month to date heating degree days 0 0  
Since 1 June heating degree days 0 0  
Since 1 July heating degree days 3397 3385  
Cooling Degree Days 10 10  
Month to date cooling degree days 147 122  
Year to date cooling degree days 375 285  
Since 1 June cooling degree days 147 122  
Growing Degree Days 24 (Base 50)    
Moisture  
Dew Point 62 °F    
Average Humidity 68    
Maximum Humidity 93    
Minimum Humidity 42    
Precipitation  
Precipitation 0.00 in 0.13 in 3.16 in (1912)
Month to date precipitation 2.19 1.83  
Year to date precipitation 24.98 18.79  
Snow  
Snow 0.00 in 0.00 in 0.00 in ()
Month to date snowfall 0.0 0.0  
Since 1 June snowfall 0.0 0.0  
Since 1 July snowfall 9.3 4.3  
Snow Depth 0.00 in    
Sea Level Pressure  
Sea Level Pressure 29.99 in    
Wind  
Wind Speed 6 mph (SSW)    
Max Wind Speed 12 mph    
Max Gust Speed 20 mph    
Visibility 10 miles    
Events      
T = Trace of Precipitation, MM = Missing Value Source: NWS Daily Summary

Daily Weather History Graph

Daily Weather History Graph

Search for Another Location

Airport or City:

Trip Planner

Search our weather history database for the weather conditions in past years. The results will help you decide how hot, cold, wet, or windy it might be!

Date:

Astronomy

Jun. 14, 2014 Rise Set
Actual Time 6:08 AM EDT 8:39 PM EDT
Civil Twilight 5:38 AM EDT 9:09 PM EDT
Nautical Twilight 5:02 AM EDT 9:46 PM EDT
Astronomical Twilight 4:21 AM EDT 10:26 PM EDT
Moon 10:06 PM EDT (6/14) 7:47 AM EDT (6/14)
Length of Visible Light 15h 30m
Length of Day
14h 30m
Full, 97% of the Moon is Illuminated
Jun 14
Full
Jun 19
Last Quarter
Jun 27
New
Jul 5
First Quarter
Jul 12
Full

Hourly Weather History & Observations

Time (EDT) Temp. Heat Index Dew Point Humidity Pressure Visibility Wind Dir Wind Speed Gust Speed Precip Events Conditions
12:52 AM 66.0 °F - 64.0 °F 93% 29.91 in 10.0 mi SW 5.8 mph - N/A   Overcast
1:52 AM 66.0 °F - 64.0 °F 93% 29.92 in 10.0 mi SW 6.9 mph - N/A   Overcast
2:52 AM 66.0 °F - 63.0 °F 90% 29.93 in 10.0 mi WSW 6.9 mph - N/A   Scattered Clouds
3:52 AM 64.0 °F - 62.1 °F 93% 29.93 in 8.0 mi SW 5.8 mph - N/A   Scattered Clouds
4:52 AM 64.9 °F - 62.1 °F 90% 29.93 in 10.0 mi Variable 3.5 mph - N/A   Scattered Clouds
5:52 AM 63.0 °F - 60.1 °F 90% 29.95 in 9.0 mi Variable 4.6 mph - N/A   Scattered Clouds
6:52 AM 64.9 °F - 62.1 °F 90% 29.97 in 10.0 mi WSW 6.9 mph - N/A   Partly Cloudy
7:52 AM 69.1 °F - 63.0 °F 81% 29.99 in 10.0 mi Variable 3.5 mph - N/A   Partly Cloudy
8:52 AM 73.4 °F - 62.6 °F 69% 30.02 in 10.0 mi Variable 5.8 mph - N/A   Clear
9:52 AM 75.9 °F - 63.0 °F 64% 30.02 in 10.0 mi Variable 5.8 mph - N/A   Partly Cloudy
10:52 AM 78.1 °F - 63.0 °F 60% 30.02 in 10.0 mi Variable 6.9 mph - N/A   Partly Cloudy
11:52 AM 81.0 °F 81.9 °F 62.1 °F 52% 30.03 in 10.0 mi Variable 5.8 mph 17.3 mph N/A   Partly Cloudy
12:52 PM 82.0 °F 82.7 °F 61.0 °F 49% 30.02 in 10.0 mi Variable 6.9 mph - N/A   Scattered Clouds
1:52 PM 84.0 °F 84.5 °F 62.1 °F 47% 30.01 in 10.0 mi Variable 6.9 mph - N/A   Mostly Cloudy
2:52 PM 82.9 °F 83.7 °F 62.1 °F 49% 30.00 in 10.0 mi Variable 6.9 mph - N/A   Mostly Cloudy
3:52 PM 86.0 °F 86.1 °F 61.0 °F 43% 29.99 in 10.0 mi SW 10.4 mph - N/A   Scattered Clouds
4:52 PM 86.0 °F 86.1 °F 60.8 °F 43% 30.00 in 10.0 mi Variable 4.6 mph - N/A   Partly Cloudy
5:52 PM 86.0 °F 86.3 °F 62.1 °F 44% 29.97 in 10.0 mi Variable 4.6 mph - N/A   Partly Cloudy
6:52 PM 84.9 °F 84.8 °F 60.1 °F 43% 29.97 in 10.0 mi Variable 5.8 mph - N/A   Partly Cloudy
7:52 PM 81.0 °F 81.9 °F 62.1 °F 52% 29.99 in 10.0 mi Variable 4.6 mph - N/A   Partly Cloudy
8:52 PM 82.0 °F 82.4 °F 60.1 °F 47% 30.01 in 10.0 mi SE 11.5 mph - N/A   Scattered Clouds
9:52 PM 80.1 °F 81.1 °F 61.0 °F 52% 30.03 in 10.0 mi SE 11.5 mph 19.6 mph N/A   Scattered Clouds
10:52 PM 80.1 °F 81.2 °F 62.1 °F 54% 30.04 in 10.0 mi ESE 6.9 mph 17.3 mph N/A   Clear
11:52 PM 75.9 °F - 62.1 °F 62% 30.05 in 10.0 mi SE 8.1 mph - N/A   Clear